Regional Weather Roundup
Issued by NWS Charleston, SC

Current Version | Previous Version | Text Only | Print | Product List | Glossary Off
Versions: 1 2 3 4 5 6 7 8 9 10 11 12 13 14 15 16 17 18 19 20 21 22 23 24 25 26 27 28 29 30 31 32 33 34 35 36 37 38 39 40 41 42 43 44 45 46 47 48 49 50

000
ASUS42 KCHS 061512
RWRCHS

REGIONAL WEATHER ROUNDUP
NATIONAL WEATHER SERVICE CHARLESTON SC
1000 AM EST TUE DEC 06 2016

NOTE: "FAIR" INDICATES FEW OR NO CLOUDS BELOW 12,000 FEET WITH NO
SIGNIFICANT WEATHER AND/OR OBSTRUCTIONS TO VISIBILITY.

NOT ALL STATIONS ARE QUALITY CONTROLLED. USE DATA WITH CAUTION...
ESPECIALLY DEWPOINT OBSERVATIONS.

SCZ027-030-031-034>040-042>050-061600-
...SOUTHEAST SOUTH CAROLINA...

CITY           SKY/WX    TMP DP  RH WIND       PRES   REMARKS
N CHARLESTON   RAIN      60  58  92 N6        29.81R FOG
WATERFRONT PRK   N/A     62  62 100 CALM      29.80R
MOUNT PLEASANT NOT AVBL
JOHNS ISLAND   LGT RAIN  64  64 100 CALM      29.81R
PINOPOLIS      NOT AVBL
MONCKS CORNER  RAIN      57  57 100 N3        29.82S
SUMMERVILLE    RAIN     N/A N/A N/A CALM      29.83R
BEAUFORT MCAS  HVY RAIN  64  64 100 S9        29.79S FOG
BEAUFORT ARPT  LGT RAIN  63  63 100 E3        29.80R
HILTON HEAD IS DRIZZLE   66  66 100 S9        29.79S
WALTERBORO     RAIN      61 N/A N/A E9        29.80F
ALLENDALE      DRIZZLE   59  59 100 VRB3      29.77R

...SOUTHERN MIDLANDS AND PEE DEE...

CITY           SKY/WX    TMP DP  RH WIND       PRES   REMARKS
GEORGETOWN     NOT AVBL
KINGSTREE      HVY RAIN  50  48  93 NE3       29.83F
ORANGEBURG     RAIN      54  54 100 E7        29.77F
BARNWELL       NOT AVBL
AIKEN          CLOUDY    52  52 100 NE5       29.80R
MANNING        NOT AVBL
COLUMBIA       CLOUDY    52  49  89 NE9       29.78F
SUMTER         LGT RAIN  49  48  95 E9        29.78F FOG
FLORENCE       LGT RAIN  49  48  97 NE7       29.86S FOG
MYRTLE BEACH   LGT RAIN  63  59  88 NE14      29.82R FOG
N MYRTLE BEACH LGT RAIN  61  61 100 NE10      29.79F

$$

GAZ063-065-086>088-099>101-113>116-118-119-134>141-150-061600-
...SOUTHEAST GEORGIA...

CITY           SKY/WX    TMP DP  RH WIND       PRES   REMARKS
SAVANNAH ARPT  TSTM      63  61  93 VRB3G20   29.79R FOG
HUNTER AAF     LGT RAIN  65  65 100 SE3       29.76S VSB 1
FORT STEWART   RAIN      63  61  94 CALM      29.77R
STATESBORO     NOT AVBL
SYLVANIA       DRIZZLE  N/A N/A N/A CALM      29.79F
CLAXTON        LGT RAIN N/A N/A N/A CALM      29.77S

...CSRA...CENTRAL AND FAR SOUTHEAST GEORGIA...

CITY           SKY/WX    TMP DP  RH WIND       PRES   REMARKS
THOMSON        CLOUDY    56  56 100 CALM      29.81S VSB 1
AUGUSTA-BUSH   CLOUDY    59  56  89 CALM      29.76R
AUGUSTA-DANIEL CLOUDY    56  53  90 CALM      29.78R FOG
SWAINSBORO     CLOUDY    63  63 100 S5        29.76S
VIDALIA        CLOUDY    64  64 100 CALM      29.76S
EASTMAN        CLOUDY    67  67 100 S5        29.76S
HAZLEHURST     CLOUDY    68  68 100 S5        29.76R
ALMA           CLOUDY    67  67 100 MISG      29.77S
WAYCROSS       CLOUDY    76  76  98 SW10      29.79R
JESUP          LGT RAIN  73  73 100 SE8       29.77S
BAXLEY         CLOUDY    66  66 100 S5        29.76F
BRUNSWICK      CLOUDY    75  73  94 S9        29.80F
SAINT SIMONS   CLOUDY    70  70 100 MISG      29.80S

$$

SCZ027-028-034-036>038-045-046-048>050-GAZ119-141-061600-
...LAKE AND SUPPLEMENTAL COASTAL OBSERVATIONS...

STATION/POSITION TIME  TEMP    WIND        PRES    WAVE   SWELL
                       AIR SEA DIR/SP/G            HT/PER HT/PER/DIR
                 (UTC) (F)     (DEG/KT/KT) (MB)    (FT/S) (FT/S/D)
WINYAH BAY       1345   58      50/ 13     1009.0
LAKE MURRAY      NOT AVBL
ACE BASIN NERRS  1345   62        CALM     1008.0
FORT PULASKI     1448   67 62  200/  6/  9 1009.0R
SAPELO ISLAND    1400   68     140/  9     1009.0

$$

ANZ835-935-AMZ111-154-330-350-352-354-370-450-454-472-061600-
...C-MAN AND BUOY OBSERVATIONS...

STATION/POSITION TIME  TEMP    WIND        PRES    WAVE   SWELL
                       AIR SEA DIR/SP/G            HT/PER HT/PER/DIR
                 (UTC) (F)     (DEG/KT/KT) (MB)    (FT/S) (FT/S/D)
BUOY 41004       1450   75 74  220/ 21/ 25 1007.8R   7/ 7   2/150/13
BUOY 41008       1450   68 65  180/ 17/ 19 1008.7R   5/ 6
FOLLY BEACH CMAN 1400   61      90/  4/  5 1009.3R
CAPERS NEARSHORE NOT AVBL
FRIPP NEARSHORE  1408   64 62  190/  4/  6 1009.8R


STATION/POSITION TIME  TEMP    WIND        PRES    WAVE   SWELL
                       AIR SEA DIR/SP/G            HT/PER HT/PER/DIR
                 (UTC) (F)     (DEG/KT/KT) (MB)    (FT/S) (FT/S/D)
5E ST. MARYS GA  1500      66                N/A     4/ 6
FRYING PAN BUOY  1450   73 74  200/ 14/ 21 1008.3F   7/ 7   3/ 50/ 7
BUOY 41025       1450   67 76  110/ 23/ 27 1012.3F   6/ 7   2/210/11
CAPE LOOKOUT NC  1400   64     100/ 18/ 20 1011.5F
BUOY 41002       1450   73 74  190/ 21/ 25 1014.3R   5/ 7   2/350/ 9
BUOY 41010       NOT AVBL
ST AUGUSTINE FL  1500   76 68  210/ 13/ 17 1011.0F


$$




USA.gov is the U.S. government's official web portal to all federal, state and local government web resources and services.